Home > Weather > Riverside > Past weeks

Flag for USA Past Weather in Riverside, California, USA — Yesterday and Last 2 Weeks

Now
75 °F

Clear.


Feels Like: 78 °F
Forecast: 69 / 97 °F
Wind: No wind

Location: Riverside Municipal Airport

Current Time: Jul 24, 2016 at 3:51:43 AM

Latest Report: Jul 24, 2016 at 2:53 AM


Visibility: 10 mi

Pressure: 29.78 "Hg

Humidity: 55%

Dew Point: 58 °F

Location of RiversideLocation

Past Weather in Riverside — Graph

°F

Riverside Temperature Yesterday

Maximum temperature yesterday: 109 °F (at 1:53 PM)
Minimum temperature yesterday: 74 °F (at 6:53 AM)
Average temperature yesterday: 87 °F

High & Low Weather Summary for the Past Weeks

 TemperatureHumidityPressure
High109 °F (Jul 23, 1:53 PM)90% (Jul 16, 5:53 AM)30.00 "Hg (Jul 16, 5:53 AM)
Low63 °F (Jul 16, 4:53 AM)7% (Jul 22, 1:53 PM)29.71 "Hg (Jul 23, 3:53 PM)
Average80 °F46%29.88 "Hg
* Reported Jul 9 2:53 AM — Jul 24 2:53 AM, Riverside, Weather by CustomWeather, © 2016

Note: Actual official high and low records may vary slightly from our data, if they occured in-between our weather recording intervals... More about our weather records

Advertising

Riverside Weather History for the Previous 24 Hours

Scroll right to see more
 ConditionsComfort  
Time TempWeatherWind HumidityBarometerVisibility
2:53 AM
Sun, Jul 24
75 °FClear.No wind55%29.78 "Hg10 mi
1:53 AM76 °FClear.No wind56%29.79 "Hg10 mi
12:53 AM77 °FClear.No wind52%29.79 "Hg10 mi
11:53 PM
Sat, Jul 23
79 °FClear.No wind48%29.80 "Hg10 mi
10:53 PM78 °FClear.No wind50%29.81 "Hg10 mi
9:53 PM80 °FClear.No wind47%29.81 "Hg10 mi
8:53 PM81 °FSunny.6 mph49%29.79 "Hg10 mi
7:53 PM83 °FSunny.6 mph48%29.77 "Hg10 mi
6:53 PM88 °FSunny.7 mph38%29.75 "Hg10 mi
5:53 PM91 °FSunny.10 mph34%29.73 "Hg10 mi
4:53 PM96 °FSunny.10 mph29%29.72 "Hg10 mi
3:53 PM100 °FSunny.17 mph24%29.71 "Hg10 mi
2:53 PM106 °FSunny.10 mph19%29.71 "Hg10 mi
1:53 PM109 °FSunny.7 mph8%29.72 "Hg10 mi
12:53 PM107 °FSunny.7 mph9%29.73 "Hg10 mi
11:53 AM103 °FSunny.No wind15%29.76 "Hg10 mi
10:53 AM98 °FSunny.3 mph16%29.77 "Hg10 mi
9:53 AM92 °FSunny.3 mph22%29.79 "Hg10 mi
8:53 AM86 °FSunny.No wind31%29.80 "Hg10 mi
7:53 AM79 °FScattered clouds.No wind44%29.80 "Hg10 mi
6:53 AM74 °FPassing clouds.3 mph53%29.79 "Hg10 mi
5:53 AM75 °FClear.No wind45%29.78 "Hg10 mi
4:53 AM75 °FClear.No wind48%29.77 "Hg10 mi
3:53 AM77 °FClear.3 mph42%29.76 "Hg10 mi
Weather by CustomWeather, © 2016

See weather overviewHow to use our weather pages